Wind_Speed
3 2 2 2 2 2 0 1 1 1 2 2 3 4 5 5 5 5 5 5 5 4 4 4 3 4 3 2 2 2 2 2 2 1 1 1 1 1 0 1 2 2 2 3 3 3 3 3 3
4 3 2 2 2 2 2 1 0 0 1 2 2 3 5 5 6 5 5 5 5 5 5 4 3 3 3 2 2 1 2 2 1 1 1 1 0 0 0 1 2 2 2 2 3 3 3 3 3
5 4 4 3 4 5 3 2 1 1 1 2 3 4 5 5 6 6 5 5 5 6 6 5 4 3 3 2 2 2 2 2 1 1 1 1 1 1 1 2 3 3 2 2 2 3 3 3 3
6 6 5 5 5 5 4 3 2 1 1 1 3 4 4 5 6 6 6 6 7 7 6 6 4 3 3 3 2 2 2 2 1 1 1 1 1 1 1 1 3 3 2 2 2 2 3 3 3
7 7 7 7 7 6 5 4 3 2 2 2 2 3 5 5 5 5 6 6 7 7 7 6 4 4 3 3 2 3 3 3 2 2 2 2 2 1 1 2 2 3 3 3 3 3 3 3 4
8 7 7 8 8 8 6 4 4 3 3 3 2 3 4 5 5 5 6 6 7 7 7 5 4 4 3 3 3 3 3 3 3 3 3 3 3 2 2 2 3 3 3 3 4 4 4 4 5
9 8 9 9 9 8 6 5 4 3 4 4 4 4 4 5 5 6 6 6 6 6 5 4 4 4 4 4 4 4 4 4 3 3 3 3 3 3 3 3 3 4 4 4 4 4 5 5 5
10 10 11 11 10 9 8 7 6 5 4 4 5 5 5 6 5 5 5 5 5 5 5 5 4 5 5 5 5 5 5 4 4 4 5 4 4 4 4 4 4 5 6 6 6 6 6 5 5
11 11 12 12 11 10 9 8 7 6 5 4 5 6 5 6 5 5 5 6 5 5 5 5 5 5 5 5 6 6 5 5 5 5 5 5 5 5 5 6 6 6 7 7 7 7 6 6 6
11 12 12 13 13 11 10 9 8 7 6 6 6 6 5 6 6 6 6 6 6 6 5 5 5 5 6 6 6 7 6 6 6 6 6 6 6 6 7 6 7 7 7 8 8 8 7 7 7
12 13 13 13 13 12 11 10 9 8 7 7 7 6 6 7 6 6 7 6 6 6 6 6 6 7 7 7 7 8 7 6 7 7 7 7 7 7 7 8 8 8 8 8 8 9 9 8 8
13 13 13 13 13 13 11 10 10 9 8 7 7 8 8 8 8 7 7 7 7 7 6 7 7 7 8 8 8 8 7 8 8 8 8 8 8 8 8 8 8 8 8 9 9 10 10 10 10
14 14 14 14 14 13 13 12 11 10 9 8 8 9 9 9 9 8 9 9 8 8 7 8 8 8 9 10 10 9 8 9 9 9 9 9 9 9 9 8 9 9 9 9 10 11 10 11 11
15 15 16 16 15 15 14 13 12 11 11 10 10 10 10 10 10 10 10 10 9 9 8 8 9 9 10 10 11 10 10 10 10 10 10 10 10 10 10 9 9 10 10 10 10 11 11 10 11
15 16 16 16 17 16 15 14 14 13 12 11 11 11 11 11 11 10 10 10 10 9 9 10 10 10 11 12 11 11 11 10 10 10 10 10 10 10 11 10 10 10 10 10 11 11 11 11 11
16 17 17 17 17 17 16 15 16 15 14 13 13 13 12 12 11 11 10 11 10 10 10 11 11 12 12 12 12 11 11 11 10 9 9 10 10 11 10 11 11 11 10 10 11 11 12 12 12
18 18 17 18 17 17 17 16 17 16 16 15 15 15 14 13 12 11 11 11 11 11 11 11 12 13 13 13 13 12 12 12 11 10 9 9 10 11 11 11 11 11 11 11 11 11 12 12 12
19 18 18 19 18 17 18 18 18 17 17 17 16 16 15 14 13 13 12 12 12 12 12 13 13 14 14 14 13 12 12 12 11 10 10 10 10 11 11 11 11 11 11 12 13 13 13 12 12
20 19 19 19 19 18 18 18 19 18 18 18 17 17 16 16 15 14 14 13 13 13 13 14 14 14 14 14 13 13 13 12 11 10 10 10 10 10 11 12 11 11 12 12 13 13 12 11 11
21 20 20 20 20 19 19 19 20 19 18 18 18 17 17 17 17 16 15 15 15 14 14 15 15 16 15 14 14 13 13 12 11 11 10 10 10 10 10 11 11 12 12 12 12 12 12 12 12
21 21 21 21 20 20 20 20 20 20 19 18 17 17 18 18 18 17 17 17 17 16 15 16 16 15 15 15 14 13 12 12 11 11 10 10 10 10 11 11 11 11 11 12 12 12 12 12 13
22 22 22 21 21 21 21 20 20 19 19 18 17 18 18 19 19 18 18 17 17 17 17 17 16 16 15 15 14 13 12 11 11 11 10 11 10 10 12 11 10 10 11 11 12 12 13 12 12
23 22 22 22 22 22 22 21 20 19 18 18 17 18 18 19 19 19 19 18 17 18 18 18 17 17 16 15 14 13 12 11 11 10 11 11 11 11 11 10 9 9 10 10 11 11 11 11 12
23 23 23 22 22 23 22 21 19 19 17 18 18 18 18 18 18 18 19 18 18 18 18 19 19 18 17 16 15 14 12 12 11 11 12 12 12 11 11 10 9 9 9 9 9 9 10 11 11
24 23 22 22 23 23 22 22 20 19 18 18 18 17 17 16 16 17 18 18 18 18 18 18 18 18 17 16 15 14 13 12 12 12 12 12 11 11 11 10 9 9 9 9 9 10 10 10 11
24 24 23 22 21 20 23 22 21 20 19 18 18 17 17 16 16 16 17 18 18 18 18 19 18 17 17 16 15 14 14 13 13 13 13 13 12 12 12 12 11 10 10 10 10 10 10 11 11
25 25 24 23 22 21 22 22 21 20 19 19 18 17 17 17 16 16 16 16 17 18 18 18 18 18 16 15 14 14 14 13 13 14 14 13 13 13 13 12 12 12 11 10 10 10 10 10 10
26 26 26 24 23 22 21 22 21 20 19 18 18 18 17 17 16 16 16 16 17 18 18 18 18 17 17 16 15 14 14 14 13 14 14 14 14 14 14 13 13 13 13 12 11 10 10 10 10
27 26 26 26 25 22 20 20 21 19 18 18 18 18 18 17 17 16 16 17 17 18 18 19 18 18 17 17 16 15 15 14 14 13 14 14 14 14 14 13 13 13 13 12 11 11 10 10 10
28 27 27 26 26 25 21 20 22 19 19 19 19 18 18 18 19 18 17 17 17 17 18 18 17 17 18 17 17 16 15 15 14 13 13 13 13 13 13 12 12 12 11 11 11 11 11 11 11
Wind_Direction
200 188 183 160 114 107 157 6 7 37 35 42 53 51 53 47 41 31 25 25 22 13 7 1 357 356 358 356 351 357 1 14 27 41 64 82 91 85 164 175 169 157 143 139 148 162 159 154 148
205 209 207 190 140 207 242 299 347 342 29 44 53 48 45 42 40 29 20 18 14 5 359 354 343 342 343 345 352 357 2 5 360 356 19 45 7 330 281 250 214 186 166 156 161 178 187 178 175
221 228 233 214 200 216 237 250 262 307 44 45 44 41 35 34 33 24 15 11 2 357 353 349 338 335 332 330 339 357 360 352 335 332 315 280 268 285 311 268 218 195 175 170 179 193 197 191 199
231 237 240 234 231 244 247 251 262 304 332 1 33 33 26 21 19 14 8 4 358 355 349 342 337 332 326 315 321 342 339 325 323 320 318 293 265 274 273 238 192 191 191 201 207 212 209 217 213
236 240 245 246 241 246 248 257 255 279 310 338 7 15 10 5 3 1 358 358 355 353 350 344 339 329 322 312 315 335 331 319 311 300 295 287 277 268 252 211 200 203 205 213 228 230 225 221 221
238 237 233 238 243 248 249 253 254 266 291 307 331 343 351 350 349 346 346 348 348 347 350 349 345 336 330 328 322 316 315 311 301 294 287 282 275 266 263 227 216 224 230 234 234 238 241 234 227
232 228 226 234 242 244 245 247 248 257 283 297 309 319 330 333 336 337 338 340 342 344 348 354 355 347 338 332 323 309 307 306 300 295 291 281 275 265 260 248 241 237 239 240 238 241 241 239 230
233 231 229 234 239 244 248 248 251 261 280 296 305 312 314 320 323 330 337 338 339 342 343 343 348 343 335 331 329 323 312 306 299 293 290 282 272 266 261 262 256 248 243 244 246 244 244 238 230
236 233 232 232 236 241 248 249 254 260 271 288 297 306 309 312 318 325 328 329 331 330 339 341 341 338 333 330 326 324 318 311 302 292 286 284 275 268 263 261 258 254 251 250 247 244 243 239 238
236 232 229 230 235 240 243 248 256 259 264 279 287 295 305 309 312 314 319 316 317 322 328 327 327 326 325 324 322 322 317 309 303 294 285 285 279 270 268 264 263 263 264 258 250 247 245 243 243
238 234 232 235 236 239 243 248 255 259 261 269 276 284 295 297 300 304 307 308 308 311 315 314 311 315 317 320 319 317 314 310 301 293 286 280 279 275 271 268 270 270 268 264 257 255 251 247 248
237 237 238 237 236 239 244 248 251 255 259 266 271 280 289 288 288 295 302 302 303 303 304 306 307 309 313 316 315 311 309 309 303 294 285 278 275 273 273 273 271 271 268 265 256 254 252 251 251
238 239 241 242 239 242 246 247 251 254 260 266 268 273 282 286 284 289 294 297 296 293 296 304 307 307 310 312 312 305 307 304 299 292 284 276 271 270 270 269 268 267 265 262 260 254 253 253 253
240 242 243 244 243 244 247 250 253 253 258 263 265 268 275 283 284 285 290 293 292 293 295 299 301 304 304 305 307 303 302 300 297 292 283 275 268 270 268 266 266 265 264 263 262 254 251 255 255
242 244 245 246 245 246 249 250 252 252 254 258 261 263 269 277 282 284 288 291 290 291 292 295 300 302 304 301 301 299 300 302 299 290 287 278 271 272 267 264 265 265 262 260 258 255 253 253 252
243 244 247 248 246 246 248 248 250 252 253 256 258 262 265 270 278 280 283 285 287 290 291 293 296 302 303 299 300 298 298 299 298 294 293 284 275 272 265 262 264 265 262 260 260 257 253 252 252
246 246 247 249 248 248 246 247 251 252 253 255 258 261 263 267 273 276 278 281 284 287 290 293 295 298 299 298 299 297 296 298 296 292 289 284 279 272 264 263 264 266 267 266 265 263 257 253 253
246 246 248 251 252 250 249 250 252 252 254 256 256 257 260 263 270 274 276 278 282 285 287 291 296 297 298 299 299 298 294 294 294 289 283 281 279 272 268 267 265 265 265 267 265 263 258 256 256
244 246 249 252 253 251 250 251 253 253 254 255 256 255 258 265 269 271 274 278 279 282 288 291 295 298 298 298 299 298 292 290 290 287 282 280 279 274 269 265 262 263 263 265 266 261 258 257 257
243 244 247 249 250 249 250 251 253 255 255 255 255 257 260 266 268 270 272 275 278 281 286 291 293 294 296 297 296 296 290 287 285 285 282 280 278 275 269 263 262 264 263 262 265 263 261 258 255
244 244 245 247 248 248 250 253 253 254 254 255 255 257 258 263 267 269 272 274 276 280 286 290 291 292 291 295 298 296 290 286 281 279 275 273 274 274 272 269 267 264 262 261 264 262 262 261 257
245 244 245 246 247 249 249 250 253 253 253 253 255 257 261 264 265 265 268 272 274 278 283 287 289 288 288 292 297 294 288 284 281 276 273 272 271 273 272 270 272 268 267 265 267 264 262 259 260
243 243 244 245 247 248 250 249 250 253 252 252 254 257 261 264 264 265 266 269 273 277 280 281 282 284 287 290 291 290 286 280 279 274 273 275 274 272 273 272 268 265 268 270 270 268 264 264 265
242 243 245 246 247 248 249 248 248 250 249 251 254 257 263 264 263 265 266 267 270 276 278 279 281 281 283 285 286 287 284 275 273 274 275 275 275 269 269 271 265 264 269 270 269 267 266 268 268
240 241 243 244 246 250 249 247 246 248 249 251 256 258 262 264 264 265 265 265 268 271 273 276 280 279 281 282 282 281 281 276 272 272 274 276 275 274 272 269 268 266 268 269 269 266 266 271 272
239 239 239 242 247 251 252 249 248 248 250 251 254 257 259 261 263 266 265 263 265 267 270 274 276 278 278 279 278 276 277 276 272 270 271 273 274 274 273 270 268 267 267 268 269 267 268 274 273
238 237 239 244 246 246 249 252 251 250 249 251 253 254 257 259 260 261 262 263 264 267 270 273 275 277 277 277 276 276 276 275 272 269 268 270 272 273 274 269 266 265 265 266 269 270 272 274 275
237 237 237 238 242 245 250 254 253 250 249 250 249 251 255 261 263 262 261 263 267 267 268 271 272 275 274 272 273 274 275 276 274 269 268 268 270 270 270 268 266 266 264 265 266 270 276 277 276
236 235 236 238 241 243 247 252 253 249 246 245 247 251 255 259 262 263 263 266 268 266 267 270 270 272 273 271 271 273 272 271 271 269 268 267 269 268 265 264 263 261 262 265 265 269 272 273 276
237 236 237 239 243 245 243 249 253 250 246 245 247 251 255 259 263 266 265 265 267 269 268 267 267 270 270 269 270 269 270 270 267 267 269 269 269 264 261 258 259 262 261 261 267 270 271 273 273
Height
5903 5903 5904 5906 5908 5909 5909 5908 5907 5907 5906 5905 5904 5902 5901 5901 5901 5902 5898 5895 5895 5894 5893 5892 5891 5890 5890 5889 5888 5888 5887 5887 5886 5885 5885 5885 5884 5884 5884 5883 5883 5884 5884 5884 5885 5885 5885 5885 5885
5903 5903 5905 5906 5908 5909 5909 5908 5907 5906 5905 5904 5903 5902 5901 5900 5899 5898 5896 5895 5894 5893 5892 5891 5891 5890 5889 5889 5888 5887 5887 5886 5885 5885 5884 5884 5884 5883 5882 5882 5882 5883 5883 5884 5884 5884 5885 5885 5885
5902 5903 5905 5906 5907 5908 5907 5907 5906 5905 5905 5904 5903 5902 5901 5900 5898 5897 5896 5895 5894 5893 5892 5891 5890 5889 5889 5888 5888 5887 5886 5885 5885 5884 5883 5883 5883 5882 5881 5878 5879 5881 5882 5883 5884 5884 5884 5884 5885
5901 5903 5905 5906 5906 5906 5906 5906 5905 5905 5904 5903 5902 5902 5900 5899 5898 5896 5895 5894 5893 5892 5891 5890 5889 5889 5888 5888 5887 5886 5886 5885 5884 5883 5883 5882 5882 5881 5880 5878 5879 5881 5882 5883 5883 5883 5884 5884 5884
5900 5902 5904 5905 5904 5905 5905 5905 5904 5904 5903 5903 5902 5901 5900 5898 5897 5896 5895 5893 5892 5891 5890 5889 5889 5888 5887 5887 5886 5886 5885 5884 5883 5883 5882 5881 5881 5881 5880 5879 5880 5881 5881 5882 5882 5883 5883 5883 5883
5900 5901 5903 5903 5903 5903 5904 5904 5903 5903 5903 5902 5901 5900 5899 5898 5897 5895 5894 5893 5892 5891 5889 5888 5888 5887 5887 5886 5885 5885 5884 5883 5883 5882 5881 5881 5880 5880 5880 5880 5880 5881 5881 5881 5881 5882 5882 5882 5882
5899 5900 5901 5902 5902 5902 5903 5903 5903 5903 5902 5902 5900 5900 5898 5897 5896 5895 5893 5892 5891 5890 5889 5888 5887 5886 5885 5885 5884 5884 5883 5882 5882 5881 5880 5880 5879 5879 5879 5879 5880 5880 5880 5880 5880 5880 5881 5881 5881
5896 5899 5899 5900 5901 5901 5901 5901 5902 5902 5901 5901 5900 5899 5898 5896 5895 5894 5893 5892 5890 5889 5888 5887 5886 5885 5885 5884 5883 5883 5882 5881 5881 5880 5879 5879 5878 5878 5878 5878 5879 5879 5879 5879 5879 5879 5879 5879 5880
5894 5897 5897 5898 5899 5899 5900 5900 5901 5900 5900 5899 5899 5898 5897 5895 5894 5893 5892 5891 5890 5889 5888 5887 5886 5885 5884 5883 5882 5882 5881 5880 5879 5879 5878 5877 5877 5877 5877 5877 5877 5877 5877 5877 5877 5877 5878 5878 5878
5892 5894 5895 5895 5896 5897 5898 5898 5899 5899 5899 5898 5898 5897 5895 5894 5893 5892 5891 5890 5889 5888 5887 5886 5885 5884 5883 5882 5881 5880 5879 5879 5878 5877 5876 5876 5875 5875 5875 5875 5875 5875 5875 5875 5876 5876 5876 5876 5877
5890 5891 5891 5892 5893 5894 5895 5896 5897 5897 5897 5897 5896 5895 5894 5893 5893 5892 5890 5889 5888 5887 5886 5885 5884 5883 5882 5881 5880 5879 5878 5877 5876 5876 5875 5874 5874 5873 5873 5873 5873 5873 5873 5873 5874 5874 5874 5874 5875
5887 5888 5889 5890 5891 5892 5893 5894 5895 5895 5896 5896 5895 5894 5893 5892 5892 5890 5889 5888 5887 5886 5885 5884 5883 5882 5881 5879 5878 5877 5876 5875 5875 5874 5873 5872 5872 5872 5871 5871 5871 5871 5871 5871 5871 5872 5872 5872 5873
5884 5885 5886 5887 5888 5889 5890 5891 5893 5893 5894 5894 5893 5892 5892 5891 5890 5889 5888 5887 5886 5885 5883 5882 5881 5880 5879 5878 5876 5874 5873 5873 5872 5871 5870 5870 5869 5869 5869 5869 5869 5869 5869 5869 5869 5869 5869 5870 5870
5881 5882 5883 5884 5885 5887 5888 5889 5890 5891 5891 5891 5891 5890 5890 5889 5888 5887 5886 5885 5884 5883 5882 5881 5880 5878 5877 5876 5874 5873 5871 5870 5869 5869 5868 5867 5867 5867 5867 5867 5866 5866 5866 5866 5866 5866 5867 5867 5868
5878 5879 5880 5881 5882 5884 5885 5886 5887 5888 5888 5888 5888 5888 5888 5887 5886 5885 5884 5883 5882 5881 5880 5879 5878 5876 5875 5874 5872 5871 5869 5868 5866 5865 5865 5864 5864 5864 5864 5864 5863 5863 5864 5864 5864 5864 5864 5865 5865
5874 5876 5877 5878 5879 5880 5883 5884 5884 5884 5885 5885 5885 5885 5885 5885 5884 5883 5883 5882 5881 5879 5878 5877 5876 5874 5873 5871 5870 5868 5867 5866 5864 5863 5862 5862 5861 5861 5861 5861 5861 5861 5861 5861 5861 5862 5862 5862 5862
5871 5873 5874 5875 5875 5877 5879 5880 5880 5881 5881 5882 5882 5882 5882 5882 5882 5881 5880 5880 5879 5878 5876 5875 5874 5873 5871 5869 5867 5866 5864 5863 5862 5861 5860 5860 5859 5859 5859 5859 5859 5859 5859 5859 5859 5859 5859 5859 5859
5868 5869 5870 5871 5872 5873 5875 5876 5876 5877 5878 5878 5879 5879 5879 5879 5879 5878 5878 5877 5876 5875 5874 5873 5872 5870 5868 5867 5865 5863 5862 5860 5859 5859 5858 5857 5857 5856 5856 5856 5856 5856 5856 5856 5856 5856 5856 5856 5856
5863 5865 5866 5867 5867 5869 5870 5871 5872 5873 5874 5874 5875 5875 5875 5875 5875 5875 5875 5874 5873 5873 5872 5871 5869 5868 5866 5864 5862 5861 5859 5858 5857 5856 5855 5855 5854 5854 5854 5854 5854 5853 5853 5853 5853 5853 5853 5853 5853
5857 5860 5861 5862 5863 5864 5866 5867 5868 5868 5869 5870 5871 5871 5872 5872 5872 5872 5871 5871 5870 5870 5869 5868 5866 5865 5863 5861 5860 5858 5856 5855 5854 5854 5853 5852 5852 5852 5852 5851 5851 5851 5851 5850 5850 5850 5850 5850 5850
5852 5855 5856 5857 5858 5860 5861 5863 5864 5864 5865 5866 5867 5867 5868 5868 5868 5868 5868 5867 5867 5866 5866 5864 5863 5861 5860 5858 5857 5855 5854 5853 5852 5851 5851 5850 5850 5849 5849 5849 5848 5848 5848 5847 5847 5847 5847 5847 5847
5847 5849 5851 5852 5854 5856 5857 5859 5859 5860 5861 5862 5863 5863 5864 5864 5864 5864 5864 5864 5863 5863 5862 5861 5860 5858 5857 5855 5854 5853 5851 5850 5849 5849 5848 5848 5847 5847 5846 5846 5845 5845 5845 5845 5844 5844 5844 5844 5844
5842 5843 5845 5847 5848 5850 5852 5854 5856 5855 5856 5857 5858 5859 5859 5859 5859 5859 5859 5860 5859 5859 5858 5857 5856 5855 5854 5852 5851 5850 5849 5848 5847 5846 5846 5845 5845 5844 5844 5843 5843 5842 5842 5842 5842 5841 5841 5841 5841
5835 5838 5840 5841 5843 5845 5847 5848 5851 5851 5852 5853 5853 5854 5854 5855 5855 5855 5855 5855 5855 5855 5854 5853 5852 5851 5850 5849 5848 5847 5846 5845 5844 5844 5843 5843 5842 5841 5841 5841 5840 5840 5840 5839 5839 5838 5838 5838 5837
5830 5833 5835 5837 5839 5841 5842 5842 5846 5846 5847 5848 5849 5849 5850 5850 5850 5850 5851 5851 5850 5850 5850 5849 5848 5847 5846 5846 5845 5844 5843 5842 5842 5841 5841 5840 5840 5839 5838 5838 5838 5837 5837 5837 5836 5836 5835 5835 5834
5824 5827 5831 5833 5836 5837 5836 5837 5841 5841 5842 5843 5844 5845 5845 5845 5846 5846 5846 5846 5846 5846 5846 5845 5845 5844 5843 5842 5841 5840 5840 5839 5838 5838 5838 5838 5837 5836 5836 5835 5835 5835 5834 5834 5833 5833 5832 5832 5831
5818 5820 5825 5828 5829 5831 5832 5833 5834 5836 5837 5838 5839 5840 5840 5841 5841 5842 5842 5842 5841 5842 5841 5841 5841 5840 5839 5838 5837 5837 5836 5835 5835 5835 5834 5834 5834 5833 5833 5833 5832 5832 5832 5831 5831 5830 5830 5829 5828
5812 5815 5817 5820 5823 5825 5828 5828 5830 5830 5832 5833 5834 5835 5836 5836 5837 5837 5837 5837 5837 5837 5837 5837 5836 5836 5835 5835 5834 5833 5832 5832 5831 5831 5831 5831 5830 5830 5829 5829 5829 5829 5829 5829 5828 5828 5827 5826 5825
5805 5808 5810 5814 5817 5820 5824 5827 5824 5825 5827 5828 5829 5830 5831 5832 5832 5832 5832 5832 5832 5832 5832 5832 5831 5831 5831 5830 5830 5830 5829 5828 5828 5827 5827 5827 5826 5826 5826 5826 5826 5826 5825 5825 5825 5825 5824 5824 5823
5798 5802 5805 5808 5810 5813 5818 5822 5818 5820 5821 5823 5824 5825 5826 5827 5827 5827 5827 5827 5827 5827 5827 5827 5827 5826 5826 5826 5826 5825 5825 5824 5824 5824 5823 5823 5822 5822 5822 5823 5823 5822 5822 5822 5822 5822 5822 5821 5821